Regional Weather Roundup
Issued by NWS

Home | Current Version | Previous Version | Graphics & Text | Print | Product List | Glossary Off
Versions: 1 2 3 4 5 6 7 8 9 10 11 12 13 14 15 16 17 18 19 20 21 22 23 24 25 26 27 28 29 30 31 32 33 34 35 36 37 38 39 40 41 42 43 44 45 46 47 48 49 50

000
ASUS43 KDTX 270001
RWRMI
MICHIGAN HOURLY REGIONAL WEATHER ROUNDUP
NATIONAL WEATHER SERVICE DETROIT/PONTIAC MI
700 PM EST THU FEB 26 2015

NOTE: "FAIR" INDICATES FEW OR NO CLOUDS BELOW 12,000 FEET WITH NO
SIGNIFICANT WEATHER AND/OR OBSTRUCTION TO VISIBILITY.

MIZ047>049-052>055-059>063-066>070-074>076-081>083-270100-
SOUTHEAST LOWER MICHIGAN

CITY           SKY/WX    TMP DP  RH WIND       PRES   REMARKS
ADRIAN         PTCLDY    11   0  61 NE9       30.25R WCI  -2
6HR MIN TEMP:  11; 6HR MAX TEMP:  16; 6HR PCP: TRACE;

ALMA           CLEAR      8  -5  54 W3        30.26R
ANN ARBOR      CLOUDY    11  -1  58 N12       30.24R WCI  -3
BAD AXE        CLEAR      4  -3  71 CALM      30.27R
CARO           CLEAR      0  -4  80 CALM      30.27R
DETROIT CITY   CLOUDY    13   1  59 N8        30.25R WCI   2
6HR MIN TEMP:  13; 6HR MAX TEMP:  17; 6HR PCP: TRACE;

DETROIT        MOCLDY    14   1  56 NW12      30.25R WCI   0
6HR MIN TEMP:  14; 6HR MAX TEMP:  17; 6HR PCP: TRACE;

FLINT          CLEAR     10  -4  53 N6        30.26R WCI   0
6HR MIN TEMP:  10; 6HR MAX TEMP:  15; 6HR PCP: TRACE;

GROSSE ILE     CLOUDY    12   3  67 NW8       30.23R WCI   1
HILLSDALE      PTCLDY    10  -1  61 N6        30.21R WCI   0
6HR MIN TEMP:  10; 6HR MAX TEMP:  15;

HOWELL         PTCLDY     8  -2  62 CALM      30.24R
6HR MIN TEMP:   8; 6HR MAX TEMP:  11;


CITY           SKY/WX    TMP DP  RH WIND       PRES   REMARKS
JACKSON        CLEAR      9  -2  61 N7        30.24R WCI  -2
6HR MIN TEMP:   9; 6HR MAX TEMP:  14;

LAMBERTVILLE   MOCLDY    16   3  57 NW3       30.25R
LANSING        CLEAR      9  -6  50 CALM      30.26R
6HR MIN TEMP:   9; 6HR MAX TEMP:  11;

LAPEER         FAIR       6  -3  63 CALM      30.25R
MASON          CLEAR      8  -3  60 CALM      30.25R
6HR MIN TEMP:   8; 6HR MAX TEMP:  11;

MONROE         MOCLDY    12   3  67 N5        30.23R WCI   4
MT. CLEMENS    CLOUDY    10  -1  60 N13       30.24R WCI  -6
6HR MIN TEMP:  10; 6HR MAX TEMP:  14; 6HR PCP: TRACE;

PONTIAC        MOCLDY     8  -1  66 N7        30.22R WCI  -3
6HR MIN TEMP:   8; 6HR MAX TEMP:  13; 6HR PCP: TRACE;

PORT HOPE        N/A      6  -4  63 N7        30.26R WCI  -6
6HR MIN TEMP:   6; 6HR MAX TEMP:  11;

PORT HURON     PTCLDY     9   0  66 N5        30.26R WCI   0
TRI CITIES     CLEAR      8  -1  66 CALM      30.28R
6HR MIN TEMP:   8; 6HR MAX TEMP:  14; 6HR PCP: TRACE;

TROY           MOCLDY    13   4  67 N3        30.26R
SAGINAW HB     CLEAR      9   1  72 E3        30.28R
$$
MIZ043>046-050>051-056>058-064>065-071>073-077>080-270100-
SOUTHWEST LOWER MICHIGAN

CITY           SKY/WX    TMP DP  RH WIND       PRES   REMARKS
BATTLE CREEK   PTCLDY    11  -2  56 N5        30.25R WCI   3
6HR MIN TEMP:  11; 6HR MAX TEMP:  16; 6HR PCP: TRACE;

BENTON HARBOR  PTCLDY    12   2  64 N8G16     30.29R WCI   0
6HR MIN TEMP:  12; 6HR MAX TEMP:  14;

BIG RAPIDS     CLEAR      7  -8  49 N6        30.25R WCI  -3
6HR MIN TEMP:   7; 6HR MAX TEMP:  12;

COLDWATER      CLOUDY    11  -1  57 NE7       30.24R WCI   1
6HR MIN TEMP:  11; 6HR MAX TEMP:  15;

FREMONT        FAIR       8  -9  46 NW7       30.28R WCI  -4
HOLLAND        PTCLDY    12  -6  44 CALM      30.29R
6HR MIN TEMP:  11; 6HR MAX TEMP:  16;

GRAND RAPIDS   MOCLDY    11  -6  46 NW8       30.26R WCI  -1
6HR MIN TEMP:  11; 6HR MAX TEMP:  16;

IONIA          FAIR       9  -7  49 N3        30.25R
KALAMAZOO      PTCLDY    10  -5  50 NW8       30.26R WCI  -2
6HR MIN TEMP:  10; 6HR MAX TEMP:  16;

LUDINGTON      PTCLDY     8  -3  60 NE3       30.34R
6HR MIN TEMP:   8; 6HR MAX TEMP:  13;

MARSHALL       PTCLDY     8  -3  59 CALM      30.24R
MOUNT PLEASANT CLEAR     11  -6  47 NW3       30.26R
6HR MIN TEMP:   9; 6HR MAX TEMP:  14;

MUSKEGON       PTCLDY    10  -7  46 N9        30.30R WCI  -3
6HR MIN TEMP:  10; 6HR MAX TEMP:  16;

SOUTH HAVEN    PTCLDY    14   0  54 N6        30.28R WCI   5
$$
MIZ016>042-270100-
NORTHERN LOWER MICHIGAN

CITY           SKY/WX    TMP DP  RH WIND       PRES   REMARKS
ALPENA         CLEAR      3  -9  57 NW3       30.27R
6HR MIN TEMP:   2; 6HR MAX TEMP:   8;

BEAVER ISLAND  CLEAR      2  -8  61 NW6       30.32R WCI  -9
6HR MIN TEMP:   2; 6HR MAX TEMP:   8;

BELLAIRE       CLEAR      1  -9  63 CALM      30.33R
6HR MIN TEMP:   1; 6HR MAX TEMP:   9;

CADILLAC       CLEAR      1 -12  56 NW5       30.24R WCI  -9
CHARLEVOIX     CLEAR      0  -9  66 CALM      30.34R
6HR MIN TEMP:   0; 6HR MAX TEMP:   5;

FRANKFORT      CLEAR      0  -5  78 CALM      30.33R
GAYLORD        CLEAR      0 -13  54 NW5       30.22R WCI -10
6HR MIN TEMP:   0; 6HR MAX TEMP:   8;

GRAYLING       CLEAR      1 -13  51 NW6       30.26R WCI -10
6HR MIN TEMP:   1; 6HR MAX TEMP:   9;

HARBOR SPRINGS CLEAR     -3 -10  72 CALM      30.30R
HOUGHTON LAKE  CLEAR      3 -10  54 NW10      30.24R WCI -12
6HR MIN TEMP:   3; 6HR MAX TEMP:  11;

MANISTEE       PTCLDY     7  -8  51 NE6       30.33R WCI  -3
OSCODA         CLEAR      6  -7  57 N5        30.26R WCI  -3
PELLSTON       CLEAR      1  -9  62 W9        30.30R WCI -14
6HR MIN TEMP:   0; 6HR MAX TEMP:   6;

ROGERS CITY    CLEAR      3  -7  62 CALM      30.29R
TRAVERSE CITY  PTCLDY     1  -9  62 CALM      30.32R
6HR MIN TEMP:   1; 6HR MAX TEMP:   6;

$$
MIZ007>008-015-270100-
EASTERN UPPER MICHIGAN

CITY           SKY/WX    TMP DP  RH WIND       PRES   REMARKS
KINROSS        CLEAR     -2  -6  84 W5        30.27R WCI -12
6HR MIN TEMP:  -2; 6HR MAX TEMP:   7;

MACKINAC ISLAN CLEAR      2  -7  65 NW7       30.28R WCI -10
6HR MIN TEMP:   2; 6HR MAX TEMP:   5;

NEWBERRY       CLEAR      0  -6  78 W7        30.28R WCI -13
S. S. MARIE    FAIR      -1  -8  72 NW6       30.26F WCI -13
6HR MIN TEMP:  -1; 6HR MAX TEMP:   3; 6HR PCP: TRACE;

MUNISING         N/A      1  -8  66 CALM      30.32S
6HR MIN TEMP:   0; 6HR MAX TEMP:   8; 6HR PCP:  0.01;

$$
MIZ004>006-011>014-085-270100-
CENTRAL UPPER MICHIGAN

CITY           SKY/WX    TMP DP  RH WIND       PRES   REMARKS
MANISTIQUE     CLEAR      1  -6  71 N5        30.31R WCI  -8
6HR MIN TEMP:   1; 6HR MAX TEMP:   9;

ESCANABA       CLEAR      7 -13  40 CALM      30.33R
6HR MIN TEMP:   5; 6HR MAX TEMP:  12;

MENOMINEE      CLEAR      7  -6  56 CALM      30.32R
6HR MIN TEMP:   7; 6HR MAX TEMP:  10;

SAWYER-GWINN   CLEAR      3  -6  66 E3        30.25R
$$
MIZ001>003-009>011-084-270100-
WESTERN UPPER MICHIGAN

CITY           SKY/WX    TMP DP  RH WIND       PRES   REMARKS
IRON MOUNTAIN  CLEAR      6 -10  47 NW7       30.26R WCI  -6
6HR MIN TEMP:   6; 6HR MAX TEMP:  10;

HOUGHTON       PTCLDY     2  -6  69 W14       30.27S WCI -16
6HR MIN TEMP:   1; 6HR MAX TEMP:   4; 6HR PCP: TRACE;

COPPER HARBOR    N/A      3  -6  66 VRB7      30.29F WCI  -9
6HR MIN TEMP:   2; 6HR MAX TEMP:   5;

IRONWOOD       CLEAR      3  -6  66 W6        30.29S WCI  -8
6HR MIN TEMP:   1; 6HR MAX TEMP:   5;

$$

ABBREVIATIONS USED IN REMARKS
   TC - TEMPERATURE IN CELSIUS
  WCI - WIND CHILL INDEX
   HX - HEAT INDEX
  VSB - VISIBILITY




USA.gov is the U.S. government's official web portal to all federal, state and local government web resources and services.